Flag for Iran Weather past 2 weeks in Bandar-Abbas, Iran

Now
104 °F

Clear.


Feels Like: 125 °F
Forecast: 89 / 103 °F
Wind: 9 mph from South

Location: Bandarabbass

Current Time: Aug 31, 2015 at 12:28:18 PM

Latest Report: Aug 31, 2015 at 11:30 AM


Visibility: 4 mi

Pressure: 29.65 "Hg

Humidity: 45%

Dew point: 79 °F

Location of Bandar-AbbasLocation

Historic Weather in Bandar-Abbas — Graph

°F

Bandar-Abbas temperature yesterday

Maximum temperature yesterday: 100 °F (at 2:00 PM)
Minimum temperature yesterday: 88 °F (at 4:30 AM)
Average temperature yesterday: 94 °F

Past Weeks' High & Low Weather Summary

 TemperatureHumidityPressure
High108 °F (Aug 27, 1:00 PM)89% (Aug 17, 7:00 AM)29.68 "Hg (Aug 17, 7:00 AM)
Low84 °F (Aug 26, 6:30 AM)26% (Aug 31, 10:30 AM)29.47 "Hg (Aug 22, 4:00 PM)
Average94 °F68%29.56 "Hg
* Reported Aug 16 11:30 AM — Aug 31 11:30 AM, Bandar-Abbas, Weather by CustomWeather, © 2015

Note: Actual official high and low records may vary slightly from our data, if they occured in-between our weather recording intervals... More about our weather records

Advertising

Bandar-Abbas weather history for previous 24 hours

 ConditionsComfort  
Time TempWeatherWind HumidityBarometerVisibility
11:30 AM
Mon, Aug 31
104 °FClear.9 mph45%29.65 "Hg4 mi
11:00 AM108 °FClear.7 mph38%29.65 "Hg4 mi
10:30 AM108 °FClear.No wind26%29.65 "Hg4 mi
10:00 AM104 °FHaze.5 mph33%29.62 "Hg3 mi
9:30 AM100 °FHaze.5 mph45%29.62 "Hg2 mi
9:00 AM99 °FHaze.5 mph50%29.62 "Hg2 mi
8:30 AM95 °FHaze.No wind63%29.62 "Hg2 mi
8:00 AM91 °FHaze.5 mph71%29.62 "Hg2 mi
7:30 AM86 °FHaze.No wind79%29.62 "Hg2 mi
7:00 AM86 °FHaze.5 mph75%29.59 "Hg2 mi
6:30 AM84 °FFog.5 mph84%29.59 "Hg2 mi
5:30 AM86 °FFog.No wind84%29.56 "Hg2 mi
4:30 AM88 °FFog.No wind84%29.56 "Hg2 mi
3:30 AM88 °FFog.No wind84%29.56 "Hg2 mi
2:30 AM88 °FFog.5 mph89%29.59 "Hg2 mi
2:00 AM90 °FFog.5 mph84%29.59 "Hg2 mi
1:30 AM90 °FFog.5 mph84%29.59 "Hg2 mi
1:00 AM90 °FFog.5 mph84%29.59 "Hg2 mi
12:00 AM90 °FFog.5 mph89%29.59 "Hg2 mi
11:30 PM
Sun, Aug 30
91 °FFog.5 mph84%29.59 "Hg2 mi
11:00 PM91 °FFog.5 mph84%29.59 "Hg2 mi
10:30 PM91 °FFog.No wind84%29.59 "Hg2 mi
10:00 PM93 °FFog.7 mph80%29.59 "Hg2 mi
9:30 PM93 °FFog.5 mph80%29.56 "Hg2 mi
9:00 PM93 °FFog.5 mph80%29.59 "Hg2 mi
8:30 PM93 °FFog.5 mph80%29.56 "Hg2 mi
8:00 PM93 °FFog.5 mph80%29.56 "Hg3 mi
7:30 PM93 °FHaze.9 mph80%29.56 "Hg3 mi
7:00 PM95 °FPassing clouds.9 mph75%29.56 "Hg4 mi
6:30 PM97 °FPassing clouds.7 mph75%29.53 "Hg4 mi
6:00 PM99 °FPassing clouds.9 mph60%29.53 "Hg4 mi
5:30 PM99 °FPassing clouds.9 mph64%29.56 "Hg4 mi
5:00 PM99 °FHaze.12 mph60%29.56 "Hg3 mi
4:30 PM99 °FHaze.14 mph64%29.56 "Hg3 mi
4:00 PM99 °FHaze.12 mph64%29.56 "Hg3 mi
3:30 PM100 °FHaze.12 mph60%29.56 "Hg3 mi
3:00 PM100 °FHaze.9 mph60%29.56 "Hg3 mi
2:30 PM100 °FHaze.14 mph60%29.59 "Hg3 mi
2:00 PM100 °FHaze.12 mph53%29.62 "Hg3 mi
1:30 PM99 °FHaze.12 mph67%29.62 "Hg3 mi
1:00 PM99 °FHaze.9 mph67%29.62 "Hg3 mi
12:30 PM99 °FHaze.9 mph67%29.65 "Hg3 mi
12:00 PM99 °FHaze.12 mph67%29.65 "Hg3 mi
Weather by CustomWeather, © 2015

See weather overviewHow to use our weather pages